Zurück zum Katalog

STARLINK-11223

AktivKommunikationVLEO
NORAD 60307·PAYLOAD·🇺🇸 United States

Gestartet Jul 28, 2024 von Vandenberg Space Force Base

Loading…

Nächste Überflüge (nächste 24 Stunden)

TLE

AktuellSource: CelesTrak SupGP

Epoche: Sep 14, 2026, 21:34 UTC

1 60307C 24133G   26257.89909722 -.00011823  00000+0 -97421-4 0  2577
2 60307  53.1571 293.3057 0001249  81.2221 293.6189 15.69706818    11

Verfolge STARLINK-11223 in Echtzeit mit AllMySat

Download on the App Store